Regional Weather Roundup
Issued by NWS Albany, NY

Home | Current Version | Previous Version | Text Only | Print | Product List | Glossary On
Versions: 1 2 3 4 5 6 7 8 9 10 11 12 13 14 15 16 17 18 19 20 21 22 23 24 25 26 27 28
000
ASUS41 KALY 251610
RWRALY

NEW YORK STATE HOURLY WEATHER ROUNDUP
NATIONAL WEATHER SERVICE ALBANY NY
1200 PM EDT MON JUL 25 2016

NOTE: "FAIR" INDICATES FEW OR NO CLOUDS BELOW 12,000 FEET WITH NO
SIGNIFICANT WEATHER AND/OR NO OBSTRUCTIONS TO VISIBILITY.

NYZ032-033-038>043-046>054-057>066-NYZ062>081-082-084-251700-
EAST


CITY           SKY/WX    TMP DP  RH WIND       PRES   REMARKS
ALBANY         PTSUNNY   85  64  49 W3        29.88F
GLENS FALLS    CLOUDY    81  66  60 VRB5      29.88F
POUGHKEEPSIE   MOSUNNY   92  68  45 W9        29.87F HX  96
NEWBURGH       MOSUNNY   90  70  51 W7        29.91F HX  95
MONTGOMERY     MOSUNNY   92  71  50 VRB6      29.89F HX  98
WHITE PLAINS   MOSUNNY   83  73  72 S9        29.92F
ISLIP          MOSUNNY   84  69  60 S15G23    29.92F
NEW YORK CITY  MOSUNNY   86  72  62 SW12G17   29.90F HX  92
CENTRAL PARK   SUNNY     88  72  58 VRB3      29.93F HX  94
$$

NYZ005>009-017-018-044>046-055-056-251700-
CENTRAL


CITY           SKY/WX    TMP DP  RH WIND       PRES   REMARKS
FULTON         CLOUDY    75  70  84 S10       29.87F
SYRACUSE       LGT RAIN  72  71  97 S8        29.88F
ROME           LGT RAIN  70  69  97 SE6       29.91F
ELMIRA         PTSUNNY   77  68  73 VRB5      29.93F
BINGHAMTON     LGT RAIN  71  69  93 N9        29.96F
MONTICELLO     SUNNY     86  66  51 W7        29.96F
$$

NYZ026>034-041>043-087-251700-
NORTH


CITY           SKY/WX    TMP DP  RH WIND       PRES   REMARKS
WATERTOWN      LGT RAIN  71  67  87 S7        29.85F
FORT DRUM      NOT AVBL
MASSENA        CLOUDY    76  67  73 S7        29.82F
SARANAC LAKE   CLOUDY    73  63  70 SW10      29.90F
PLATTSBURGH    LGT RAIN  74  65  73 CALM      29.84F
$$

NYZ001>004-010>016-019>021-085-251700-
WEST


CITY           SKY/WX    TMP DP  RH WIND       PRES   REMARKS
NIAGARA FALLS  CLOUDY    77  72  84 SW10      29.88R
BUFFALO        LGT RAIN  74  71  91 SW10      29.89S
DUNKIRK        LGT RAIN  75  71  87 W20G29    29.92R
JAMESTOWN      CLOUDY    77  72  83 SW8       29.95F
WELLSVILLE     MOSUNNY   80  73  79 VRB3      30.00F
ROCHESTER      RAIN      74  71  91 W7        29.89R
PENN YAN       CLOUDY    77  70  79 SW10      29.91F
$$

             KEY
       WCI = WIND CHILL INDEX
       VSB = VISIBILITY
       HX  = HEAT INDEX
$$




USA.gov is the U.S. government's official web portal to all federal, state and local government web resources and services.